Temp
14 13 10 15 16 16 16 17 15 15 15 14 15 15 13 12 12 12 11 10 10 9 9 9 9 9 9 10 11 10 10 10 10 10 8 10 8 7 8 10 10 11 11 11
16 13 12 16 16 16 17 17 14 15 14 14 15 15 14 13 12 12 11 11 11 10 9 9 9 9 9 10 10 10 10 10 10 10 10 8 9 7 9 9 9 11 11 11
16 11 16 17 17 17 13 17 17 14 15 15 15 15 15 13 13 12 12 12 12 11 11 10 10 10 9 9 10 10 10 10 10 10 10 10 10 10 10 9 10 10 11 11
16 14 17 17 16 17 14 16 16 16 16 11 16 10 15 14 13 13 12 12 12 12 12 11 11 10 10 9 10 10 10 10 10 10 10 10 11 9 9 9 9 10 10 10
12 14 16 17 16 16 17 16 17 17 17 18 18 19 17 15 14 13 13 13 13 13 12 12 12 11 11 10 10 9 10 10 11 11 11 11 11 8 9 9 10 10 10 10
16 14 15 17 16 16 16 17 17 17 16 13 19 18 18 17 16 15 14 14 13 13 13 12 12 12 12 11 10 10 10 11 11 11 11 11 11 11 9 10 9 8 10 9
16 16 16 17 17 17 17 18 10 11 17 20 19 19 19 18 17 17 15 14 13 13 13 12 12 12 11 11 10 10 11 11 11 11 11 11 11 11 11 11 11 9 8 9
14 17 18 18 17 16 18 18 16 9 17 14 19 17 19 18 17 17 16 15 14 14 13 13 12 12 12 11 11 10 11 11 11 11 11 11 11 11 11 11 11 8 8 8
18 19 17 17 17 17 14 18 18 18 20 19 21 19 18 17 17 16 16 16 14 14 14 13 13 12 12 11 11 11 11 11 11 11 10 10 10 11 11 11 11 11 11 11
17 18 18 18 17 17 17 16 18 16 17 14 16 20 19 18 17 16 16 16 15 14 14 14 13 13 13 12 12 11 11 10 11 11 11 11 10 10 11 11 11 11 11 11
17 18 19 18 18 19 18 18 18 17 19 20 16 13 18 18 17 16 16 15 15 15 15 14 13 13 13 13 13 12 11 11 10 11 11 11 11 11 11 11 11 11 11 11
17 18 19 19 19 19 18 19 18 20 15 17 19 10 18 17 17 16 15 15 14 15 14 14 13 13 13 13 13 12 12 11 12 12 12 12 11 12 12 12 11 11 11 11
17 18 19 19 20 19 19 19 19 20 19 19 19 19 18 17 16 15 15 16 16 13 13 14 13 12 12 12 12 11 12 12 12 12 12 12 13 12 12 11 11 11 11 10
16 18 19 20 20 20 20 19 19 19 20 20 19 16 18 17 16 15 16 16 15 14 13 13 12 13 12 12 11 12 12 12 12 12 12 12 12 12 12 12 11 11 11 11
16 17 18 19 19 20 20 20 20 19 19 20 17 18 19 18 17 15 14 15 15 13 12 13 13 13 12 12 13 12 12 12 12 12 12 12 12 12 12 11 11 11 11 10
17 17 17 18 19 19 20 20 20 20 19 19 19 19 19 18 16 15 14 15 14 12 12 11 11 12 13 13 13 12 12 12 13 13 12 12 12 12 12 12 11 11 10 10
17 18 18 18 19 19 19 19 19 19 19 19 19 19 18 18 17 15 14 14 15 13 12 12 11 11 11 13 13 13 13 13 13 12 12 12 12 12 11 11 11 11 10 10
17 18 18 18 19 18 20 19 19 19 19 19 19 19 18 18 17 15 15 14 14 13 12 12 12 13 13 13 14 14 14 14 13 13 12 12 11 11 11 11 11 11 11 11
17 17 18 18 18 19 19 19 19 19 19 19 19 19 19 17 17 15 15 14 13 13 12 12 13 14 14 14 14 13 14 13 13 13 13 12 11 11 11 11 11 11 11 11
16 17 17 17 18 19 19 19 19 19 19 19 18 18 18 17 17 16 14 14 13 13 12 13 14 14 14 14 13 13 13 13 13 12 12 12 11 11 11 11 11 11 11 11
17 16 17 17 17 18 18 19 17 18 19 18 18 18 18 17 17 17 14 13 13 12 14 14 14 14 14 14 13 13 13 13 12 12 11 11 11 11 11 11 11 11 11 11
16 16 16 16 17 18 18 18 17 18 18 17 17 16 16 16 16 16 14 13 12 13 14 14 14 14 15 14 13 13 13 12 12 12 11 11 11 11 11 11 11 11 11 11
16 16 17 17 18 18 17 17 17 17 17 16 16 15 15 15 15 15 15 12 13 14 14 14 14 14 14 14 13 12 12 12 12 11 11 11 11 10 10 11 11 11 10 10
16 16 16 17 17 17 17 17 17 17 16 16 16 15 15 15 14 13 13 12 15 14 14 14 13 14 14 13 12 12 12 12 11 11 11 11 11 11 10 10 10 7 7 6
13 14 14 16 16 16 16 16 16 17 16 15 15 15 15 14 14 13 13 14 14 14 13 13 13 13 13 13 12 12 12 11 11 11 11 10 10 10 10 8 7 8 9 9
9 11 13 14 15 15 15 16 16 16 16 15 16 15 15 16 14 13 13 14 14 14 13 13 13 13 13 13 12 11 11 11 11 11 10 10 10 10 9 9 9 9 9 9
Height
3172 3170 3160 3165 3170 3168 3167 3166 3167 3169 3169 3170 3170 3172 3174 3174 3176 3178 3179 3180 3181 3182 3185 3188 3191 3194 3195 3196 3196 3197 3198 3199 3201 3202 3202 3203 3206 3207 3207 3207 3207 3206 3205 3204
3170 3165 3168 3172 3169 3166 3164 3163 3165 3169 3167 3166 3167 3169 3171 3173 3175 3177 3179 3181 3182 3182 3183 3186 3191 3194 3196 3196 3196 3197 3198 3200 3201 3202 3203 3204 3204 3206 3206 3207 3207 3206 3205 3205
3166 3167 3164 3170 3167 3166 3163 3163 3162 3164 3168 3165 3166 3169 3168 3170 3173 3176 3178 3181 3183 3185 3186 3189 3192 3195 3197 3198 3197 3199 3200 3200 3201 3202 3202 3203 3204 3204 3205 3207 3207 3208 3206 3205
3171 3160 3173 3169 3167 3167 3164 3165 3160 3160 3168 3168 3170 3164 3166 3166 3170 3173 3176 3179 3183 3185 3188 3190 3192 3194 3196 3197 3198 3199 3200 3201 3202 3202 3202 3203 3204 3205 3206 3206 3206 3207 3206 3205
3172 3173 3171 3172 3169 3166 3165 3162 3159 3158 3159 3160 3160 3154 3158 3163 3167 3171 3174 3178 3181 3184 3187 3190 3193 3195 3198 3199 3200 3200 3200 3201 3202 3203 3203 3203 3203 3204 3205 3205 3206 3207 3206 3205
3178 3173 3175 3172 3169 3166 3163 3163 3162 3161 3160 3160 3150 3155 3157 3160 3164 3168 3172 3176 3179 3183 3186 3189 3193 3196 3198 3199 3200 3202 3199 3201 3202 3202 3203 3203 3204 3204 3205 3205 3206 3206 3204 3205
3174 3174 3171 3170 3168 3167 3165 3160 3168 3172 3161 3148 3151 3152 3156 3159 3162 3166 3169 3173 3177 3181 3184 3187 3190 3193 3195 3198 3198 3199 3199 3201 3202 3202 3203 3204 3204 3204 3204 3205 3205 3206 3208 3208
3174 3168 3168 3167 3167 3167 3164 3161 3162 3183 3158 3162 3151 3160 3158 3160 3163 3166 3169 3172 3176 3179 3183 3186 3188 3191 3193 3196 3197 3199 3200 3201 3202 3202 3203 3204 3204 3204 3204 3204 3204 3205 3207 3208
3166 3163 3169 3167 3167 3169 3168 3164 3162 3158 3150 3150 3147 3156 3160 3162 3164 3166 3169 3171 3173 3177 3181 3184 3187 3190 3192 3194 3196 3198 3199 3200 3201 3203 3203 3204 3204 3204 3204 3204 3204 3203 3203 3203
3167 3163 3165 3166 3167 3168 3170 3165 3163 3167 3164 3174 3161 3154 3159 3163 3165 3167 3169 3170 3173 3175 3179 3182 3186 3189 3191 3194 3197 3198 3199 3200 3201 3202 3203 3203 3203 3203 3203 3203 3203 3203 3203 3204
3169 3167 3165 3166 3166 3163 3166 3164 3162 3162 3159 3153 3167 3170 3165 3164 3165 3166 3168 3169 3171 3174 3177 3180 3183 3187 3190 3193 3197 3199 3199 3201 3200 3200 3200 3201 3202 3202 3202 3202 3202 3203 3204 3205
3169 3165 3160 3162 3161 3162 3162 3162 3156 3156 3167 3159 3158 3166 3166 3163 3164 3166 3166 3166 3167 3171 3174 3177 3179 3184 3188 3192 3195 3197 3196 3198 3198 3199 3199 3199 3199 3200 3200 3200 3201 3202 3204 3204
3167 3165 3163 3161 3158 3159 3160 3159 3157 3157 3158 3159 3160 3159 3163 3162 3163 3165 3163 3163 3163 3166 3169 3174 3176 3178 3181 3186 3192 3191 3194 3196 3196 3196 3197 3198 3198 3198 3199 3200 3201 3201 3201 3200
3166 3162 3159 3156 3152 3152 3153 3155 3157 3158 3157 3157 3161 3167 3163 3162 3164 3164 3162 3162 3162 3162 3163 3167 3169 3175 3177 3184 3185 3188 3191 3192 3193 3194 3196 3196 3198 3198 3199 3200 3199 3198 3198 3196
3164 3161 3157 3154 3153 3151 3149 3145 3151 3155 3158 3157 3162 3160 3158 3160 3163 3164 3162 3162 3162 3162 3163 3165 3169 3174 3178 3179 3182 3185 3187 3189 3191 3192 3193 3194 3195 3195 3198 3198 3196 3196 3193 3193
3160 3159 3155 3152 3151 3148 3147 3147 3150 3153 3155 3156 3156 3157 3156 3157 3161 3163 3162 3162 3163 3165 3167 3168 3171 3173 3174 3176 3178 3180 3183 3185 3187 3188 3189 3190 3190 3192 3193 3194 3192 3189 3187 3188
3154 3151 3150 3148 3145 3145 3146 3146 3149 3150 3151 3152 3153 3154 3156 3158 3160 3160 3161 3161 3163 3165 3167 3169 3171 3173 3175 3174 3175 3176 3178 3179 3180 3182 3184 3185 3186 3188 3188 3190 3188 3187 3187 3187
3148 3146 3146 3144 3142 3143 3137 3141 3143 3144 3146 3147 3149 3150 3150 3155 3157 3158 3160 3161 3162 3164 3167 3170 3172 3172 3172 3171 3171 3171 3172 3174 3175 3177 3178 3180 3182 3184 3185 3185 3184 3184 3184 3183
3143 3143 3141 3140 3138 3136 3135 3137 3140 3141 3143 3145 3146 3148 3149 3148 3154 3155 3157 3159 3161 3164 3166 3169 3169 3169 3168 3167 3166 3166 3167 3168 3170 3172 3173 3176 3179 3181 3182 3182 3182 3182 3182 3181
3136 3136 3138 3137 3132 3132 3131 3132 3127 3133 3134 3139 3141 3143 3144 3142 3149 3151 3154 3157 3159 3162 3165 3166 3167 3167 3165 3164 3164 3164 3164 3166 3167 3169 3171 3173 3175 3177 3178 3179 3179 3180 3180 3179
3126 3131 3129 3131 3130 3126 3128 3130 3127 3131 3135 3133 3135 3135 3137 3138 3143 3146 3150 3154 3157 3160 3161 3164 3165 3166 3165 3164 3163 3163 3164 3165 3166 3168 3169 3171 3173 3175 3176 3177 3178 3179 3178 3178
3121 3124 3124 3126 3124 3123 3127 3127 3130 3129 3129 3129 3130 3130 3129 3134 3139 3141 3144 3149 3153 3154 3158 3162 3164 3165 3164 3163 3163 3163 3164 3166 3166 3168 3170 3172 3173 3175 3176 3178 3178 3178 3178 3178
3110 3114 3114 3115 3115 3118 3120 3121 3123 3125 3125 3123 3127 3128 3128 3132 3135 3138 3141 3146 3148 3151 3156 3160 3162 3162 3162 3162 3163 3164 3166 3166 3167 3169 3171 3172 3174 3175 3176 3177 3178 3178 3178 3178
3103 3107 3106 3108 3110 3112 3115 3117 3119 3119 3121 3125 3126 3128 3130 3133 3134 3138 3141 3144 3145 3149 3154 3157 3159 3160 3160 3160 3161 3163 3166 3167 3168 3169 3171 3173 3174 3175 3177 3177 3178 3180 3180 3180
3094 3094 3097 3100 3106 3109 3111 3113 3114 3117 3119 3122 3124 3124 3128 3131 3134 3137 3138 3140 3143 3146 3150 3154 3156 3158 3158 3159 3160 3162 3164 3166 3167 3169 3171 3172 3174 3176 3177 3177 3178 3179 3179 3179
3086 3092 3099 3099 3103 3105 3106 3108 3110 3113 3114 3115 3118 3120 3122 3125 3130 3133 3135 3137 3139 3143 3147 3151 3154 3155 3156 3157 3158 3160 3163 3165 3168 3170 3171 3172 3174 3175 3176 3178 3179 3179 3179 3179
Wind_Speed
17 6 4 2 3 6 3 3 3 2 3 6 5 5 7 8 10 11 11 13 13 14 14 21 21 18 16 14 12 10 8 7 6 5 4 3 2 5 4 4 2 1 1 1
8 11 12 4 6 3 3 6 7 1 4 8 8 8 9 10 10 12 13 12 12 12 13 21 19 16 16 14 12 10 7 7 5 5 7 6 7 5 8 4 4 1 2 0
11 5 10 5 8 9 15 3 2 4 8 9 9 10 13 13 12 13 14 14 14 16 18 20 19 17 15 14 12 11 9 8 8 7 6 6 4 6 7 4 2 5 1 1
14 10 6 10 8 12 12 5 2 6 2 10 12 9 16 16 16 15 17 18 18 19 18 16 17 19 17 15 14 14 13 11 10 8 8 8 7 4 6 7 4 5 4 3
13 6 11 9 9 10 9 5 3 7 9 1 5 5 13 15 17 18 18 19 20 19 19 20 18 16 15 15 13 13 13 12 9 8 7 7 7 7 9 1 4 3 3 5
14 17 14 8 9 7 7 3 3 4 12 9 4 6 10 11 12 16 19 20 20 20 20 20 19 18 16 16 13 13 14 10 7 7 6 6 4 2 5 4 3 3 5 8
13 16 12 8 8 9 8 14 13 10 6 2 3 8 10 6 4 11 17 21 20 20 21 21 20 18 18 17 16 14 11 8 6 4 4 3 3 3 3 3 4 5 2 8
17 20 11 9 9 8 10 12 9 5 5 11 7 11 9 5 5 8 10 17 20 21 19 20 19 19 19 17 16 14 13 9 5 3 2 2 3 4 4 5 5 5 5 8
20 10 6 6 7 5 14 14 13 4 13 15 12 12 8 6 6 5 8 13 20 21 20 19 20 20 19 18 17 16 14 10 7 6 4 4 4 5 6 6 6 6 7 7
16 15 6 6 8 10 7 7 13 12 2 2 10 18 12 6 5 4 6 9 15 20 21 21 19 19 19 17 16 14 13 10 7 7 6 9 10 10 8 8 9 8 7 5
13 15 9 8 12 13 9 11 8 6 13 1 3 18 10 7 5 4 5 7 11 18 21 21 19 18 20 19 17 14 13 12 11 11 13 12 13 13 11 9 9 7 6 8
10 15 15 18 13 12 15 11 15 4 9 23 4 27 3 8 5 4 6 5 8 15 20 22 22 20 19 19 18 17 11 12 15 13 13 11 13 13 12 11 11 10 10 12
12 16 18 18 16 17 14 16 14 11 9 4 10 8 4 3 4 4 5 5 5 13 19 22 24 30 26 23 17 22 21 17 16 16 12 10 10 11 13 14 14 14 14 16
11 15 18 20 15 13 18 16 15 12 12 7 9 11 2 1 4 5 6 3 3 7 15 29 29 29 31 18 24 20 19 21 19 18 14 14 12 12 13 14 16 22 20 18
13 20 19 18 20 19 21 11 11 10 13 12 9 18 12 4 6 8 8 5 5 6 7 17 20 23 25 28 21 23 26 26 23 20 16 17 20 21 11 16 22 26 21 19
16 22 22 20 17 18 26 18 15 17 13 15 15 13 12 6 8 11 13 10 11 13 14 14 18 23 20 21 24 28 28 30 26 23 21 21 26 25 31 27 19 19 27 17
19 26 22 27 18 18 25 22 22 22 18 17 15 11 3 5 9 13 16 14 14 15 15 14 12 11 11 13 17 21 24 25 24 22 22 20 23 22 23 19 20 13 14 16
25 21 23 25 18 16 16 15 19 19 16 15 14 11 11 10 10 15 18 19 16 16 16 15 12 8 6 11 17 22 23 23 24 24 23 21 17 17 16 14 12 12 14 15
26 27 28 26 27 23 18 18 16 20 21 18 18 17 14 11 9 16 20 21 19 19 17 14 9 3 5 8 11 14 18 20 18 18 19 19 19 18 16 16 15 12 11 7
26 26 28 28 27 22 25 23 28 14 20 17 19 22 20 17 17 21 23 23 22 20 18 13 7 3 7 3 6 8 9 10 11 12 12 13 13 13 12 10 8 5 4 6
31 28 30 28 33 33 25 19 7 15 17 16 18 16 16 19 19 23 25 26 24 22 19 13 6 3 4 1 5 7 6 9 10 11 11 10 10 9 8 7 6 3 4 3
33 30 29 31 31 32 25 23 15 15 12 12 14 15 17 19 19 25 25 27 26 24 21 15 8 3 2 1 5 7 8 11 12 12 12 12 12 12 9 6 5 3 3 3
41 37 30 27 28 21 21 25 22 15 14 5 5 6 14 21 23 25 20 27 24 23 21 16 10 5 1 4 9 10 10 11 12 12 12 11 11 9 7 6 4 4 4 4
39 35 39 30 26 23 13 20 18 15 10 9 11 9 17 17 19 22 25 24 19 22 23 17 12 6 4 6 11 13 11 11 12 12 11 10 9 7 7 6 5 3 2 2
28 20 22 32 28 20 22 24 19 20 17 13 13 18 18 16 19 24 25 22 20 23 24 18 13 7 6 8 12 13 12 11 11 11 11 10 9 8 7 9 8 7 3 1
25 18 15 26 19 22 23 23 24 21 21 17 13 20 22 26 25 27 24 22 22 23 23 17 13 9 7 8 12 13 14 13 13 12 11 9 8 8 5 1 2 2 2 2
Wind_Direction
216 226 110 310 330 313 306 299 109 157 214 201 217 201 192 179 175 185 185 187 184 200 200 200 184 190 182 181 194 193 198 211 210 200 222 237 195 263 221 234 258 359 38 46
242 206 274 18 337 311 262 259 284 50 204 185 195 203 203 188 185 191 180 179 185 188 166 180 181 186 188 191 200 205 211 203 208 221 231 213 210 215 236 197 236 280 76 332
295 219 45 349 332 336 296 334 231 186 218 200 196 198 194 197 191 190 187 182 175 169 170 178 182 188 195 213 215 216 216 215 212 220 222 215 213 195 189 166 100 286 280 330
280 269 329 331 333 341 126 349 296 253 204 276 202 281 202 193 194 196 192 190 188 187 184 196 197 197 202 207 211 216 218 223 221 214 216 214 215 146 248 186 271 237 244 269
314 231 349 331 336 349 342 338 248 241 243 266 198 229 162 184 201 203 198 201 196 200 200 196 198 204 202 209 211 220 227 233 234 226 222 213 213 184 205 110 254 200 279 308
276 272 282 304 322 318 314 290 247 220 15 270 118 113 153 174 204 209 207 202 202 201 198 197 196 198 200 204 204 215 229 227 214 208 212 216 221 217 200 208 223 334 321 307
260 255 271 270 280 271 293 257 359 332 121 108 64 159 85 108 160 204 207 202 204 202 201 201 200 200 199 203 208 207 212 194 186 191 201 202 194 195 198 224 226 209 254 332
266 269 242 241 257 235 302 305 139 252 182 238 118 113 68 109 125 170 205 205 203 201 204 204 204 201 203 204 204 199 200 182 177 171 192 205 215 220 218 230 245 232 229 266
276 245 213 237 262 313 313 302 338 6 288 15 100 100 53 124 139 147 173 206 206 205 201 205 206 204 204 203 199 196 198 201 212 226 252 278 283 261 249 244 245 253 254 271
256 285 225 219 266 259 269 312 323 16 230 125 320 83 91 138 164 181 187 203 214 210 204 207 202 203 199 197 197 200 214 216 235 243 258 261 266 265 260 255 253 264 284 334
241 258 272 234 248 250 258 226 209 227 266 218 89 317 47 91 148 180 208 215 217 215 211 206 205 201 198 195 200 211 216 216 230 256 271 264 277 270 262 258 259 259 293 314
243 268 272 248 251 243 251 280 266 213 4 296 254 209 108 71 113 156 192 209 217 207 208 206 204 197 198 196 196 203 218 214 238 252 268 280 266 265 255 247 249 266 291 301
251 246 256 261 238 226 245 263 267 273 181 261 296 76 72 57 137 155 213 268 260 188 194 196 198 197 195 190 203 216 214 227 243 252 261 270 256 238 239 242 260 275 280 286
255 261 257 257 266 279 235 228 242 263 276 252 266 279 186 115 166 185 238 262 238 209 222 209 202 207 214 236 227 231 231 236 244 243 253 259 251 243 241 261 280 273 276 282
254 263 265 261 265 268 263 218 217 228 264 266 264 275 271 265 207 208 197 181 166 153 164 194 202 210 218 234 250 235 232 238 248 245 248 253 248 255 277 263 279 276 271 269
247 258 271 277 279 254 256 240 243 256 260 264 280 280 284 203 193 193 190 174 162 164 168 178 191 210 232 237 231 233 238 238 249 243 247 252 249 255 258 256 284 280 277 288
240 249 257 269 260 240 245 244 248 260 259 259 257 256 234 237 214 197 189 182 160 163 171 168 170 175 195 217 225 232 234 235 240 248 255 253 244 244 250 260 266 280 280 288
250 250 251 261 264 297 242 245 244 245 246 255 256 258 257 242 238 207 193 184 172 163 167 166 167 186 236 247 237 241 243 246 250 252 252 249 244 240 245 256 266 280 287 293
237 242 256 254 260 248 254 247 236 245 254 258 255 259 248 245 216 205 194 187 179 171 169 168 185 215 303 260 242 237 243 245 246 245 241 238 239 245 248 259 269 273 277 282
235 237 240 252 261 254 250 262 260 274 241 249 264 257 252 226 213 208 192 186 180 176 176 182 198 261 327 277 236 228 227 233 228 222 222 225 226 233 241 245 246 232 245 271
223 235 244 240 251 258 257 269 208 245 265 276 263 256 250 231 220 204 188 183 181 183 195 195 204 263 347 267 226 205 201 197 191 186 187 189 193 195 191 178 180 211 249 235
226 232 233 242 249 250 249 252 245 267 280 262 267 257 221 197 181 204 190 180 182 201 203 201 203 220 28 150 182 176 166 160 147 151 157 160 160 160 159 164 175 177 165 168
246 232 230 232 243 249 256 252 246 244 251 298 227 213 168 163 178 201 195 183 198 211 201 206 205 200 161 163 166 173 173 159 150 153 150 149 151 152 157 164 162 155 155 142
244 240 246 250 246 256 259 236 230 239 233 247 222 198 170 180 180 178 178 187 206 204 201 208 206 202 190 179 176 180 184 173 156 147 150 157 153 161 169 170 170 80 46 130
242 253 255 240 246 247 244 238 240 234 240 228 224 206 195 189 188 185 184 194 202 204 202 206 209 208 203 190 190 188 189 182 170 168 161 160 165 172 176 168 172 186 165 171
241 248 238 236 237 245 250 239 236 230 234 240 243 212 203 199 200 188 191 198 205 207 206 208 212 218 216 195 193 193 194 185 186 185 172 166 176 174 153 129 207 243 252 244